TimeMST,TemperatureF,Dew PointF,Humidity,Sea Level PressureIn,VisibilityMPH,Wind Direction,Wind SpeedMPH,Gust SpeedMPH,PrecipitationIn,Events,Conditions,WindDirDegrees,DateUTC
12:56 AM,28.0,26.1,92,30.37,-9999.0,Calm,Calm,-,N/A,,Unknown,0,2012-11-06 07:56:00
1:56 AM,28.9,28.0,96,30.37,-9999.0,Calm,Calm,-,N/A,,Unknown,0,2012-11-06 08:56:00
2:56 AM,30.0,28.9,96,30.37,-9999.0,Calm,Calm,-,N/A,,Unknown,0,2012-11-06 09:56:00
3:56 AM,30.9,28.9,92,30.36,-9999.0,Calm,Calm,-,N/A,,Unknown,0,2012-11-06 10:56:00
4:56 AM,32.0,30.0,92,30.37,-9999.0,Calm,Calm,-,N/A,,Unknown,0,2012-11-06 11:56:00
5:56 AM,33.1,30.9,92,30.38,-9999.0,Calm,Calm,-,N/A,,Unknown,0,2012-11-06 12:56:00
6:56 AM,33.1,30.9,92,30.39,-9999.0,Calm,Calm,-,N/A,,Unknown,0,2012-11-06 13:56:00
7:56 AM,34.0,32.0,92,30.40,-9999.0,Calm,Calm,-,N/A,,Unknown,0,2012-11-06 14:56:00
8:56 AM,39.0,34.0,82,30.38,-9999.0,Calm,Calm,-,N/A,,Unknown,0,2012-11-06 15:56:00
9:56 AM,42.1,34.0,73,30.36,-9999.0,Calm,Calm,-,N/A,,Unknown,0,2012-11-06 16:56:00
10:56 AM,45.0,33.1,63,30.37,-9999.0,Variable,4.6,-,N/A,,Unknown,0,2012-11-06 17:56:00
11:56 AM,46.0,30.9,56,30.34,-9999.0,Variable,3.5,-,N/A,,Unknown,0,2012-11-06 18:56:00
12:56 PM,48.0,30.9,52,30.32,-9999.0,Variable,5.8,-,N/A,,Unknown,0,2012-11-06 19:56:00
1:56 PM,48.9,30.0,48,30.29,-9999.0,Variable,6.9,-,N/A,,Unknown,0,2012-11-06 20:56:00
2:56 PM,48.9,30.0,48,30.27,-9999.0,Variable,5.8,-,N/A,,Unknown,0,2012-11-06 21:56:00
3:56 PM,46.9,30.9,54,30.28,-9999.0,Calm,Calm,-,N/A,,Unknown,0,2012-11-06 22:56:00
4:56 PM,45.0,30.0,56,30.27,-9999.0,Calm,Calm,-,N/A,,Unknown,0,2012-11-06 23:56:00
5:56 PM,34.0,28.0,79,30.32,-9999.0,Calm,Calm,-,N/A,,Unknown,0,2012-11-07 00:56:00
6:56 PM,30.9,27.0,85,30.32,-9999.0,NW,3.5,-,N/A,,Unknown,320,2012-11-07 01:56:00
7:56 PM,28.9,26.1,89,30.31,-9999.0,NW,3.5,-,N/A,,Unknown,310,2012-11-07 02:56:00
8:56 PM,28.0,26.1,92,30.28,-9999.0,Calm,Calm,-,N/A,,Unknown,0,2012-11-07 03:56:00
9:56 PM,28.9,27.0,92,30.24,-9999.0,Calm,Calm,-,N/A,,Unknown,0,2012-11-07 04:56:00
10:56 PM,28.0,27.0,96,30.24,-9999.0,Calm,Calm,-,N/A,,Unknown,0,2012-11-07 05:56:00
11:56 PM,28.0,26.1,92,30.21,-9999.0,Calm,Calm,-,N/A,,Unknown,0,2012-11-07 06:56:00